This demonstration page uses our WeatherBlox Daily Observations layout. Learn more.

Left ArrowRight Arrow

Hourly Observations for March 27, 2019

Temp ( °F °C ) Dew Point ( °F °C ) Humidity (%) Winds ( mph kmh ) Pressure ( in mb ) Visibility ( mi km ) Precip ( " mm )
12:57 am 00:57 Clear 51 10.6 43 6.1 74 74 S 22 35 30.04 1017 10 16 0.00 0.00
1:57 am 01:57 Clear 49 9.4 42 5.6 77 77 S 15 24 30.02 1017 10 16 0.00 0.00
2:57 am 02:57 Clear 48 8.9 42 5.6 80 80 S 14 22 30.00 1016 10 16 0.00 0.00
3:57 am 03:57 Clear 48 8.9 42 5.6 80 80 S 16 26 29.97 1015 10 16 0.00 0.00
4:57 am 04:57 Clear 47 8.3 42 5.6 83 83 S 16 26 29.95 1014 10 16 0.00 0.00
5:57 am 05:57 Clear 47 8.3 42 5.6 83 83 S 15 24 29.93 1013 10 16 0.00 0.00
6:57 am 06:57 Clear 47 8.3 42 5.6 83 83 S 15 24 29.92 1013 10 16 0.00 0.00
8:57 am 08:57 Sunny 49 9.4 44 6.7 83 83 S 16 26 29.92 1013 10 16 0.00 0.00
9:57 am 09:57 Sunny 55 12.8 46 7.8 72 72 SSW 17 28 29.91 1013 10 16 0.00 0.00
10:57 am 10:57 Sunny 58 14.4 47 8.3 67 67 SW 13 20 29.91 1013 10 16 0.00 0.00
11:57 am 11:57 Sunny 61 16.1 49 9.4 65 65 SSW 12 19 29.91 1013 10 16 0.00 0.00
12:57 pm 12:57 Sunny 64 17.8 49 9.4 58 58 W 7 11 29.91 1013 10 16 0.00 0.00
1:57 pm 13:57 Sunny 68 20 49 9.4 51 51 W 5 7 29.88 1012 10 16 0.00 0.00
2:57 pm 14:57 Sunny 70 21.1 50 10 49 49 Calm 29.87 1011 10 16 0.00 0.00
3:57 pm 15:57 Sunny 72 22.2 48 8.9 43 43 SSW 6 9 29.85 1011 10 16 0.00 0.00
4:57 pm 16:57 Sunny 75 23.9 37 2.8 25 25 W 12 19 29.85 1011 10 16 0.00 0.00
5:57 pm 17:57 Sunny 76 24.4 35 1.7 23 23 NW 10 17 29.85 1011 10 16 0.00 0.00
6:57 pm 18:57 Sunny 70 21.1 38 3.3 31 31 N 10 17 29.88 1012 10 16 0.00 0.00
7:57 pm 19:57 Clear 64 17.8 40 4.4 41 41 N 7 11 29.91 1013 10 16 0.00 0.00
8:57 pm 20:57 Clear 61 16.1 39 3.9 44 44 NNE 6 9 29.92 1013 10 16 0.00 0.00
9:57 pm 21:57 Clear 54 12.2 42 5.6 64 64 NNE 10 17 29.95 1014 10 16 0.00 0.00
10:57 pm 22:57 Clear 53 11.7 44 6.7 72 72 NNE 12 19 29.98 1015 10 16 0.00 0.00
11:57 pm 23:57 Clear 50 10 43 6.1 77 77 NNE 10 17 29.98 1015 10 16 0.00 0.00

Powered by AerisWeather